Home   Weather   Conception Bay South   Past weeks

Flag for Canada Past Weather in Conception Bay South, Newfoundland and Labrador, Canada — Yesterday and Last 2 Weeks

Now
27 °F

Snow. Low clouds.


Feels Like: 10 °F
Forecast: 25 / 30 °F
Wind: 30 mph from North

Location: St. John's

Current Time: Jan 21, 2017 at 5:13:02 am

Latest Report: Jan 21, 2017 at 4:30 am


Visibility: 0 mi

Pressure: 29.35 "Hg

Humidity: 100%

Dew Point: 27 °F

Location of Conception Bay SouthLocation

Past Weather in Conception Bay South — Graph

°F

Conception Bay South Temperature Yesterday

Maximum temperature yesterday: 28 °F (at 6:30 pm)
Minimum temperature yesterday: 18 °F (at 2:30 am)
Average temperature yesterday: 25 °F

High & Low Weather Summary for the Past Weeks

 TemperatureHumidityPressure
High46 °F (Jan 8, 4:30 pm)100% (Jan 7, 5:30 am)30.90 "Hg (Jan 7, 5:30 am)
Low5 °F (Jan 16, 10:30 pm)48% (Jan 14, 5:30 am)29.39 "Hg (Jan 21, 3:30 am)
Average25 °F81%30.08 "Hg
* Reported Jan 6 3:30 am — Jan 21 3:30 am, Conception Bay South, Weather by CustomWeather, © 2017

Note: Actual official high and low records may vary slightly from our data, if they occured in-between our weather recording intervals... More about our weather records

Advertising

Conception Bay South Weather History for the Previous 24 Hours

Scroll right to see more
 ConditionsComfort  
Time TempWeatherWind HumidityBarometerVisibility
3:30 am
Sat, Jan 21
27 °FLight snow. Low clouds.29 mph100%29.39 "Hg1 mi
2:30 am27 °FLight snow. Low clouds.24 mph100%29.44 "Hg1 mi
1:30 am27 °FLight snow. Low clouds.30 mph93%29.47 "Hg1 mi
12:30 am27 °FLight snow. Low clouds.30 mph93%29.52 "Hg1 mi
11:30 pm
Fri, Jan 20
27 °FLight snow. Overcast.31 mph93%29.58 "Hg1 mi
10:30 pm27 °FLight snow. Overcast.31 mph93%29.64 "Hg1 mi
10:09 pm27 °FLight snow. Overcast.30 mph93%29.66 "Hg1 mi
8:30 pm28 °FOvercast.23 mph86%29.73 "Hg15 mi
7:30 pm28 °FOvercast.21 mph86%29.77 "Hg15 mi
6:30 pm28 °FOvercast.20 mph86%29.81 "Hg15 mi
5:30 pm27 °FOvercast.20 mph93%29.83 "Hg15 mi
4:30 pm27 °FOvercast.21 mph86%29.84 "Hg20 mi
3:30 pm27 °FOvercast.20 mph86%29.85 "Hg15 mi
2:30 pm27 °FOvercast.15 mph86%29.88 "Hg15 mi
1:30 pm27 °FOvercast.17 mph86%29.89 "Hg15 mi
12:30 pm27 °FOvercast.16 mph80%29.91 "Hg14 mi
11:30 am27 °FOvercast.15 mph74%29.96 "Hg15 mi
10:30 am25 °FPartly sunny.17 mph80%30.01 "Hg15 mi
9:30 am25 °FPartly sunny.13 mph80%30.02 "Hg15 mi
8:30 am25 °FOvercast.13 mph80%30.02 "Hg15 mi
7:30 am25 °FOvercast.9 mph80%30.03 "Hg15 mi
6:30 am25 °FPassing clouds.9 mph74%30.03 "Hg15 mi
5:30 am25 °FOvercast.9 mph74%30.03 "Hg15 mi
Weather by CustomWeather, © 2017

See weather overviewHow to use our weather pages